Regional Weather Roundup
Issued by NWS

Home | Current Version | Previous Version | Graphics & Text | Print | Product List | Glossary On
Versions: 1 2 3 4 5 6 7 8 9 10 11 12 13 14 15 16 17 18 19 20 21 22 23 24 25 26 27 28 29 30 31 32 33 34 35 36 37 38 39 40 41 42 43 44 45 46 47 48 49 50
000
ASUS43 KDTX 052001
RWRMI
MICHIGAN HOURLY REGIONAL WEATHER ROUNDUP
NATIONAL WEATHER SERVICE DETROIT/PONTIAC MI
400 PM EDT SUN JUL 05 2015

NOTE: "FAIR" INDICATES FEW OR NO CLOUDS BELOW 12,000 FEET WITH NO
SIGNIFICANT WEATHER AND/OR OBSTRUCTION TO VISIBILITY.

MIZ047>049-052>055-059>063-066>070-074>076-081>083-052100-
SOUTHEAST LOWER MICHIGAN

CITY           SKY/WX    TMP DP  RH WIND       PRES   REMARKS
ADRIAN         MOSUNNY   81  59  47 SE7       30.11F
ALMA           SUNNY     82  57  43 S5        30.09F
ANN ARBOR      SUNNY     80  59  48 CALM      30.11F
BAD AXE        MOSUNNY   80  60  50 SW9       30.10F
CARO           MOSUNNY   81  62  51 S7        30.09F
DETROIT CITY   MOSUNNY   80  57  45 S7        30.11F
DETROIT        MOSUNNY   81  55  40 E9        30.11F
FLINT          SUNNY     83  59  44 CALM      30.10F
GROSSE ILE     MOSUNNY   75  63  64 S6        30.10F
HILLSDALE      SUNNY     80  58  47 CALM      30.11F
HOWELL         MOSUNNY   81  59  47 E5        30.10F

CITY           SKY/WX    TMP DP  RH WIND       PRES   REMARKS
JACKSON        SUNNY     81  62  52 VRB3      30.10F
LAMBERTVILLE   MOSUNNY   80  56  43 E5        30.11S
LANSING        SUNNY     81  61  50 VRB5      30.09F
LAPEER         FAIR      82  56  40 S6        30.10F
MASON          MOSUNNY   78  60  53 CALM      30.10F
MONROE         MOSUNNY   78  57  48 E6        30.10F
MT. CLEMENS    MOSUNNY   79  60  53 SE10      30.09F
PONTIAC        MOSUNNY   81  58  45 SE3       30.10F
PORT HOPE        N/A     69  65  86 E8        30.09F
PORT HURON     FAIR      81  61  50 SE5       30.11F
TRI CITIES     SUNNY     84  55  36 SW9       30.09F
MIDLAND        FAIR      82  58  43 S5        30.07F
TROY           MOSUNNY   84  54  36 SE5       30.12F
SAGINAW HB     SUNNY     81  59  47 SW7       30.08F
$$
MIZ043>046-050>051-056>058-064>065-071>073-077>080-052100-
SOUTHWEST LOWER MICHIGAN

CITY           SKY/WX    TMP DP  RH WIND       PRES   REMARKS
BATTLE CREEK   SUNNY     82  62  50 SE7       30.10F
BENTON HARBOR  SUNNY     81  60  48 NW8       30.07F
BIG RAPIDS     SUNNY     80  55  42 SW6       30.07F
COLDWATER      SUNNY     80  58  45 S3        30.10F
FREMONT        FAIR      81  56  42 S3        30.07F
HOLLAND        SUNNY     83  60  45 W7        30.08F
GRAND RAPIDS   PTSUNNY   82  60  47 VRB5      30.08F
IONIA          FAIR      82  59  45 CALM      30.08F
KALAMAZOO      SUNNY     81  60  48 VRB3      30.08F
LUDINGTON      SUNNY     78  61  55 SW12      30.07S
MARSHALL       SUNNY     82  61  49 S3        30.09F
MOUNT PLEASANT SUNNY     82  56  40 S6        30.08S
MUSKEGON       PTSUNNY   81  59  47 SW8       30.08F
SOUTH HAVEN    SUNNY     81  57  44 NW7       30.07F
$$
MIZ016>042-052100-
NORTHERN LOWER MICHIGAN

CITY           SKY/WX    TMP DP  RH WIND       PRES   REMARKS
ALPENA         SUNNY     79  60  52 E10       30.08S
BEAVER ISLAND  SUNNY     78  61  55 SW9       30.05F
BELLAIRE       MOSUNNY   84  60  43 SW3       30.04F
CADILLAC       PTSUNNY   81  61  50 SE7       30.08S
CHARLEVOIX     SUNNY     79  63  57 W9        30.08S
FRANKFORT      SUNNY     78  55  46 W8        30.06S
GAYLORD        MOSUNNY   82  58  43 S9        30.08S
GRAYLING       SUNNY     82  60  47 S7        30.08F
HARBOR SPRINGS SUNNY     80  64  57 W5        30.06S
HOUGHTON LAKE  SUNNY     82  58  43 SW7       30.08F
MANISTEE       SUNNY    N/A N/A N/A W9        30.06R
OSCODA         SUNNY     77  59  54 E9        30.09S
PELLSTON       SUNNY     82  63  52 W9        30.06S
ROGERS CITY    MOSUNNY   82  61  49 SE8       30.06F
TRAVERSE CITY  PTSUNNY   85  60  42 S7        30.02F
$$
MIZ007>008-015-052100-
EASTERN UPPER MICHIGAN

CITY           SKY/WX    TMP DP  RH WIND       PRES   REMARKS
KINROSS        SUNNY     81  63  54 SW8G16    30.05S
MACKINAC ISLAN CLOUDY    71  60  68 CALM      30.06F
NEWBERRY       SUNNY     77  64  63 S15       30.03F
S. S. MARIE    MOSUNNY   82  63  52 SW12G20   30.03F
$$
MIZ004>006-011>014-085-052100-
CENTRAL UPPER MICHIGAN

CITY           SKY/WX    TMP DP  RH WIND       PRES   REMARKS
MANISTIQUE     SUNNY     67  59  75 S10       30.03S HAZE
ESCANABA       SUNNY     75  63  64 S12       29.98F
MENOMINEE      SUNNY     81  61  50 S15G21    29.99F
SAWYER-GWINN   MOSUNNY   82  61  47 SW18      29.98F
$$
MIZ001>003-009>011-084-052100-
WESTERN UPPER MICHIGAN

CITY           SKY/WX    TMP DP  RH WIND       PRES   REMARKS
IRON MOUNTAIN  MOSUNNY   81  62  52 S13       29.97F
HOUGHTON       MOSUNNY   83  61  47 S14G22    29.90F
COPPER HARBOR    N/A     67  57  70 CALM      29.90F
IRONWOOD       PTSUNNY   81  63  54 SW15      29.89F
$$

ABBREVIATIONS USED IN REMARKS
   TC - TEMPERATURE IN CELSIUS
  WCI - WIND CHILL INDEX
   HX - HEAT INDEX
  VSB - VISIBILITY



USA.gov is the U.S. government's official web portal to all federal, state and local government web resources and services.